owner,sensor,date,latitude,longitude,vertical_datum,mass_concentration_of_oxygen_in_sea_water,qcFlag 
SCCF RECON,ioos:station:SCCF:51:1,2008-09-01T00:00:00Z,26.5545,-82.1715,2.108,5.52,1111122 
SCCF RECON,ioos:station:SCCF:51:1,2008-09-01T01:00:00Z,26.5545,-82.1715,2.051,5.26,1111122 
SCCF RECON,ioos:station:SCCF:51:1,2008-09-01T02:00:00Z,26.5545,-82.1715,2.075,5.54,1111122 
SCCF RECON,ioos:station:SCCF:51:1,2008-09-01T03:00:00Z,26.5545,-82.1715,2.146,5.37,1111122 
SCCF RECON,ioos:station:SCCF:51:1,2008-09-01T04:00:00Z,26.5545,-82.1715,2.243,5.08,1111122 
SCCF RECON,ioos:station:SCCF:51:1,2008-09-01T05:00:00Z,26.5545,-82.1715,2.305,4.34,1111122 
SCCF RECON,ioos:station:SCCF:51:1,2008-09-01T06:00:00Z,26.5545,-82.1715,2.257,4.07,1111122 
SCCF RECON,ioos:station:SCCF:51:1,2008-09-01T07:00:00Z,26.5545,-82.1715,2.172,3.94,1111122 
SCCF RECON,ioos:station:SCCF:51:1,2008-09-01T08:00:00Z,26.5545,-82.1715,2.076,4.67,1111122 
SCCF RECON,ioos:station:SCCF:51:1,2008-09-01T09:00:00Z,26.5545,-82.1715,1.977,4.66,1111122 
SCCF RECON,ioos:station:SCCF:51:1,2008-09-01T10:00:00Z,26.5545,-82.1715,1.871,4.58,1111122 
SCCF RECON,ioos:station:SCCF:51:1,2008-09-01T11:00:00Z,26.5545,-82.1715,1.771,4.66,1111122 
SCCF RECON,ioos:station:SCCF:51:1,2008-09-01T12:00:00Z,26.5545,-82.1715,1.688,4.92,1111122 
SCCF RECON,ioos:station:SCCF:51:1,2008-09-01T13:00:00Z,26.5545,-82.1715,1.633,5.04,1111122 
SCCF RECON,ioos:station:SCCF:51:1,2008-09-01T14:00:00Z,26.5545,-82.1715,1.661,5.26,1111122 
SCCF RECON,ioos:station:SCCF:51:1,2008-09-01T15:00:00Z,26.5545,-82.1715,1.767,5.62,1111122 
SCCF RECON,ioos:station:SCCF:51:1,2008-09-01T16:00:00Z,26.5545,-82.1715,1.923,5.29,1111122 
SCCF RECON,ioos:station:SCCF:51:1,2008-09-01T17:00:00Z,26.5545,-82.1715,2.083,4.56,1111122 
SCCF RECON,ioos:station:SCCF:51:1,2008-09-01T18:00:00Z,26.5545,-82.1715,2.171,4.42,1111122 
SCCF RECON,ioos:station:SCCF:51:1,2008-09-01T19:00:00Z,26.5545,-82.1715,2.203,4.9,1111122 
SCCF RECON,ioos:station:SCCF:51:1,2008-09-01T20:00:00Z,26.5545,-82.1715,2.185,5.21,1111122 
SCCF RECON,ioos:station:SCCF:51:1,2008-09-01T21:00:00Z,26.5545,-82.1715,2.121,6.62,1111122 
SCCF RECON,ioos:station:SCCF:51:1,2008-09-01T22:00:00Z,26.5545,-82.1715,2.031,4.9,1111122 
SCCF RECON,ioos:station:SCCF:51:1,2008-09-01T23:00:00Z,26.5545,-82.1715,1.942,4.19,1111122 
SCCF RECON,ioos:station:SCCF:51:1,2008-09-02T00:00:00Z,26.5545,-82.1715,1.869,4.22,1111122 
SCCF RECON,ioos:station:SCCF:51:1,2008-09-02T01:00:00Z,26.5545,-82.1715,1.835,4.53,1111122 
SCCF RECON,ioos:station:SCCF:51:1,2008-09-02T02:00:00Z,26.5545,-82.1715,1.839,5.86,1111122 
SCCF RECON,ioos:station:SCCF:51:1,2008-09-02T03:00:00Z,26.5545,-82.1715,1.899,6.15,1111122 
SCCF RECON,ioos:station:SCCF:51:1,2008-09-02T04:00:00Z,26.5545,-82.1715,1.988,6.36,1111122 
SCCF RECON,ioos:station:SCCF:51:1,2008-09-02T05:00:00Z,26.5545,-82.1715,2.096,4.86,1111122 
SCCF RECON,ioos:station:SCCF:51:1,2008-09-02T06:00:00Z,26.5545,-82.1715,2.173,4.41,1111122 
SCCF RECON,ioos:station:SCCF:51:1,2008-09-02T07:00:00Z,26.5545,-82.1715,2.164,4.57,1111122 
SCCF RECON,ioos:station:SCCF:51:1,2008-09-02T08:00:00Z,26.5545,-82.1715,2.094,5.02,1111122 
SCCF RECON,ioos:station:SCCF:51:1,2008-09-02T09:00:00Z,26.5545,-82.1715,1.999,4.93,1111122 
SCCF RECON,ioos:station:SCCF:51:1,2008-09-02T10:00:00Z,26.5545,-82.1715,1.883,5.33,1111122 
SCCF RECON,ioos:station:SCCF:51:1,2008-09-02T11:00:00Z,26.5545,-82.1715,1.775,5.0,1111122 
SCCF RECON,ioos:station:SCCF:51:1,2008-09-02T12:00:00Z,26.5545,-82.1715,1.674,4.99,1111122 
SCCF RECON,ioos:station:SCCF:51:1,2008-09-02T13:00:00Z,26.5545,-82.1715,1.588,4.65,1111122 
SCCF RECON,ioos:station:SCCF:51:1,2008-09-02T14:00:00Z,26.5545,-82.1715,1.538,5.92,1111122 
SCCF RECON,ioos:station:SCCF:51:1,2008-09-02T15:00:00Z,26.5545,-82.1715,1.575,6.36,1111122 
SCCF RECON,ioos:station:SCCF:51:1,2008-09-02T16:00:00Z,26.5545,-82.1715,1.67,7.45,1111122 
SCCF RECON,ioos:station:SCCF:51:1,2008-09-02T17:00:00Z,26.5545,-82.1715,1.798,6.12,1111122 
SCCF RECON,ioos:station:SCCF:51:1,2008-09-02T18:00:00Z,26.5545,-82.1715,1.92,5.22,1111122 
SCCF RECON,ioos:station:SCCF:51:1,2008-09-02T19:00:00Z,26.5545,-82.1715,1.975,5.01,1111122 
SCCF RECON,ioos:station:SCCF:51:1,2008-09-02T20:00:00Z,26.5545,-82.1715,1.984,6.93,1111122 
SCCF RECON,ioos:station:SCCF:51:1,2008-09-02T21:00:00Z,26.5545,-82.1715,1.949,8.03,1111122 
SCCF RECON,ioos:station:SCCF:51:1,2008-09-02T22:00:00Z,26.5545,-82.1715,1.906,9.02,1111122 
SCCF RECON,ioos:station:SCCF:51:1,2008-09-02T23:00:00Z,26.5545,-82.1715,1.859,9.64,1111122 
SCCF RECON,ioos:station:SCCF:51:1,2008-09-03T00:00:00Z,26.5545,-82.1715,1.81,9.27,1111122 
SCCF RECON,ioos:station:SCCF:51:1,2008-09-03T01:00:00Z,26.5545,-82.1715,1.772,7.4,1111122 
SCCF RECON,ioos:station:SCCF:51:1,2008-09-03T02:00:00Z,26.5545,-82.1715,1.74,6.95,1111122 
SCCF RECON,ioos:station:SCCF:51:1,2008-09-03T03:00:00Z,26.5545,-82.1715,1.799,5.99,1111122 
SCCF RECON,ioos:station:SCCF:51:1,2008-09-03T04:00:00Z,26.5545,-82.1715,1.889,6.23,1111122 
SCCF RECON,ioos:station:SCCF:51:1,2008-09-03T05:00:00Z,26.5545,-82.1715,2.009,4.43,1111122 
SCCF RECON,ioos:station:SCCF:51:1,2008-09-03T06:00:00Z,26.5545,-82.1715,2.121,3.99,1111122 
SCCF RECON,ioos:station:SCCF:51:1,2008-09-03T07:00:00Z,26.5545,-82.1715,2.16,3.99,1111122 
SCCF RECON,ioos:station:SCCF:51:1,2008-09-03T08:00:00Z,26.5545,-82.1715,2.145,4.44,1111122 
SCCF RECON,ioos:station:SCCF:51:1,2008-09-03T09:00:00Z,26.5545,-82.1715,2.094,4.38,1111122 
SCCF RECON,ioos:station:SCCF:51:1,2008-09-03T10:00:00Z,26.5545,-82.1715,2.013,5.73,1111122 
SCCF RECON,ioos:station:SCCF:51:1,2008-09-03T11:00:00Z,26.5545,-82.1715,1.913,5.63,1111122 
SCCF RECON,ioos:station:SCCF:51:1,2008-09-03T12:00:00Z,26.5545,-82.1715,1.808,5.26,1111122 
SCCF RECON,ioos:station:SCCF:51:1,2008-09-03T13:00:00Z,26.5545,-82.1715,1.704,5.51,1111122 
SCCF RECON,ioos:station:SCCF:51:1,2008-09-03T14:00:00Z,26.5545,-82.1715,1.635,5.55,1111122 
SCCF RECON,ioos:station:SCCF:51:1,2008-09-03T15:00:00Z,26.5545,-82.1715,1.627,6.72,1111122 
SCCF RECON,ioos:station:SCCF:51:1,2008-09-03T16:00:00Z,26.5545,-82.1715,1.684,8.22,1111122 
SCCF RECON,ioos:station:SCCF:51:1,2008-09-03T17:00:00Z,26.5545,-82.1715,1.78,9.76,1111122 
SCCF RECON,ioos:station:SCCF:51:1,2008-09-03T18:00:00Z,26.5545,-82.1715,1.906,6.23,1111122 
SCCF RECON,ioos:station:SCCF:51:1,2008-09-03T19:00:00Z,26.5545,-82.1715,1.997,5.09,1111122 
SCCF RECON,ioos:station:SCCF:51:1,2008-09-03T20:00:00Z,26.5545,-82.1715,2.02,5.44,1111122 
SCCF RECON,ioos:station:SCCF:51:1,2008-09-03T21:00:00Z,26.5545,-82.1715,2.004,4.25,1111122 
SCCF RECON,ioos:station:SCCF:51:1,2008-09-03T22:00:00Z,26.5545,-82.1715,1.98,6.81,1111122 
SCCF RECON,ioos:station:SCCF:51:1,2008-09-03T23:00:00Z,26.5545,-82.1715,1.95,7.46,1111122 
SCCF RECON,ioos:station:SCCF:51:1,2008-09-04T00:00:00Z,26.5545,-82.1715,1.925,6.48,1111122 
SCCF RECON,ioos:station:SCCF:51:1,2008-09-04T01:00:00Z,26.5545,-82.1715,1.85,4.29,1111122 
SCCF RECON,ioos:station:SCCF:51:1,2008-09-04T02:00:00Z,26.5545,-82.1715,1.84,4.66,1111122 
SCCF RECON,ioos:station:SCCF:51:1,2008-09-04T03:00:00Z,26.5545,-82.1715,1.879,5.49,1111122 
SCCF RECON,ioos:station:SCCF:51:1,2008-09-04T04:00:00Z,26.5545,-82.1715,1.958,6.44,1111122 
SCCF RECON,ioos:station:SCCF:51:1,2008-09-04T05:00:00Z,26.5545,-82.1715,2.058,5.56,1111122 
SCCF RECON,ioos:station:SCCF:51:1,2008-09-04T06:00:00Z,26.5545,-82.1715,2.16,4.56,1111122 
SCCF RECON,ioos:station:SCCF:51:1,2008-09-04T07:00:00Z,26.5545,-82.1715,2.21,4.46,1111122 
SCCF RECON,ioos:station:SCCF:51:1,2008-09-04T08:00:00Z,26.5545,-82.1715,2.19,4.5,1111122 
SCCF RECON,ioos:station:SCCF:51:1,2008-09-04T09:00:00Z,26.5545,-82.1715,2.147,4.31,1111122 
SCCF RECON,ioos:station:SCCF:51:1,2008-09-04T10:00:00Z,26.5545,-82.1715,2.087,5.26,1111122 
SCCF RECON,ioos:station:SCCF:51:1,2008-09-04T11:00:00Z,26.5545,-82.1715,2.011,6.25,1111122 
SCCF RECON,ioos:station:SCCF:51:1,2008-09-04T12:00:00Z,26.5545,-82.1715,1.92,5.57,1111122 
SCCF RECON,ioos:station:SCCF:51:1,2008-09-04T13:00:00Z,26.5545,-82.1715,1.811,5.43,1111122 
SCCF RECON,ioos:station:SCCF:51:1,2008-09-04T14:00:00Z,26.5545,-82.1715,1.73,5.25,1111122 
SCCF RECON,ioos:station:SCCF:51:1,2008-09-04T15:00:00Z,26.5545,-82.1715,1.679,5.56,1111122 
SCCF RECON,ioos:station:SCCF:51:1,2008-09-04T16:00:00Z,26.5545,-82.1715,1.684,6.97,1111122 
SCCF RECON,ioos:station:SCCF:51:1,2008-09-04T17:00:00Z,26.5545,-82.1715,1.748,9.01,1111122 
SCCF RECON,ioos:station:SCCF:51:1,2008-09-04T18:00:00Z,26.5545,-82.1715,1.829,5.29,1111122 
SCCF RECON,ioos:station:SCCF:51:1,2008-09-04T19:00:00Z,26.5545,-82.1715,1.916,5.76,1111122 
SCCF RECON,ioos:station:SCCF:51:1,2008-09-04T20:00:00Z,26.5545,-82.1715,1.966,5.05,1111122 
SCCF RECON,ioos:station:SCCF:51:1,2008-09-04T21:00:00Z,26.5545,-82.1715,1.969,5.52,1111122 
SCCF RECON,ioos:station:SCCF:51:1,2008-09-04T22:00:00Z,26.5545,-82.1715,1.949,7.6,1111122 
SCCF RECON,ioos:station:SCCF:51:1,2008-09-04T23:00:00Z,26.5545,-82.1715,1.92,8.45,1111122 
SCCF RECON,ioos:station:SCCF:51:1,2008-09-05T00:00:00Z,26.5545,-82.1715,1.883,7.83,1111122 
SCCF RECON,ioos:station:SCCF:51:1,2008-09-05T01:00:00Z,26.5545,-82.1715,1.848,8.07,1111122 
SCCF RECON,ioos:station:SCCF:51:1,2008-09-05T02:00:00Z,26.5545,-82.1715,1.822,7.62,1111122 
SCCF RECON,ioos:station:SCCF:51:1,2008-09-05T03:00:00Z,26.5545,-82.1715,1.82,7.7,1111122 
SCCF RECON,ioos:station:SCCF:51:1,2008-09-05T04:00:00Z,26.5545,-82.1715,1.857,7.48,1111122 
SCCF RECON,ioos:station:SCCF:51:1,2008-09-05T05:00:00Z,26.5545,-82.1715,1.912,6.98,1111122 
SCCF RECON,ioos:station:SCCF:51:1,2008-09-05T06:00:00Z,26.5545,-82.1715,1.989,4.36,1111122 
SCCF RECON,ioos:station:SCCF:51:1,2008-09-05T07:00:00Z,26.5545,-82.1715,2.076,4.01,1111122 
SCCF RECON,ioos:station:SCCF:51:1,2008-09-05T08:00:00Z,26.5545,-82.1715,2.14,4.19,1111122 
SCCF RECON,ioos:station:SCCF:51:1,2008-09-05T09:00:00Z,26.5545,-82.1715,2.156,4.17,1111122 
SCCF RECON,ioos:station:SCCF:51:1,2008-09-05T10:00:00Z,26.5545,-82.1715,2.119,4.38,1111122 
SCCF RECON,ioos:station:SCCF:51:1,2008-09-05T11:00:00Z,26.5545,-82.1715,2.055,5.04,1111122 
SCCF RECON,ioos:station:SCCF:51:1,2008-09-05T12:00:00Z,26.5545,-82.1715,1.975,5.06,1111122 
SCCF RECON,ioos:station:SCCF:51:1,2008-09-05T13:00:00Z,26.5545,-82.1715,1.891,4.88,1111122 
SCCF RECON,ioos:station:SCCF:51:1,2008-09-05T14:00:00Z,26.5545,-82.1715,1.814,5.31,1111122 
SCCF RECON,ioos:station:SCCF:51:1,2008-09-05T15:00:00Z,26.5545,-82.1715,1.781,5.33,1111122 
SCCF RECON,ioos:station:SCCF:51:1,2008-09-05T16:00:00Z,26.5545,-82.1715,1.755,5.34,1111122 
SCCF RECON,ioos:station:SCCF:51:1,2008-09-05T17:00:00Z,26.5545,-82.1715,1.789,5.17,1111122 
SCCF RECON,ioos:station:SCCF:51:1,2008-09-05T18:00:00Z,26.5545,-82.1715,1.833,5.83,1111122 
SCCF RECON,ioos:station:SCCF:51:1,2008-09-05T19:00:00Z,26.5545,-82.1715,1.893,5.98,1111122 
SCCF RECON,ioos:station:SCCF:51:1,2008-09-05T20:00:00Z,26.5545,-82.1715,1.952,6.21,1111122 
SCCF RECON,ioos:station:SCCF:51:1,2008-09-05T21:00:00Z,26.5545,-82.1715,1.988,6.58,1111122 
SCCF RECON,ioos:station:SCCF:51:1,2008-09-05T22:00:00Z,26.5545,-82.1715,2.009,5.73,1111122 
SCCF RECON,ioos:station:SCCF:51:1,2008-09-05T23:00:00Z,26.5545,-82.1715,2.002,6.95,1111122 
SCCF RECON,ioos:station:SCCF:51:1,2008-09-06T00:00:00Z,26.5545,-82.1715,1.977,7.12,1111122 
SCCF RECON,ioos:station:SCCF:51:1,2008-09-06T01:00:00Z,26.5545,-82.1715,1.942,6.65,1111122 
SCCF RECON,ioos:station:SCCF:51:1,2008-09-06T02:00:00Z,26.5545,-82.1715,1.957,6.38,1111122 
SCCF RECON,ioos:station:SCCF:51:1,2008-09-06T03:00:00Z,26.5545,-82.1715,1.999,6.56,1111122 
SCCF RECON,ioos:station:SCCF:51:1,2008-09-06T04:00:00Z,26.5545,-82.1715,2.041,6.36,1111122 
SCCF RECON,ioos:station:SCCF:51:1,2008-09-06T05:00:00Z,26.5545,-82.1715,2.087,6.0,1111122 
SCCF RECON,ioos:station:SCCF:51:1,2008-09-06T06:00:00Z,26.5545,-82.1715,2.13,6.02,1111122 
SCCF RECON,ioos:station:SCCF:51:1,2008-09-06T07:00:00Z,26.5545,-82.1715,2.173,5.36,1111122 
SCCF RECON,ioos:station:SCCF:51:1,2008-09-06T08:00:00Z,26.5545,-82.1715,2.215,4.94,1111122 
SCCF RECON,ioos:station:SCCF:51:1,2008-09-06T09:00:00Z,26.5545,-82.1715,2.23,4.57,1111122 
SCCF RECON,ioos:station:SCCF:51:1,2008-09-06T10:00:00Z,26.5545,-82.1715,2.21,5.02,1111122 
SCCF RECON,ioos:station:SCCF:51:1,2008-09-06T11:00:00Z,26.5545,-82.1715,2.157,5.29,1111122 
SCCF RECON,ioos:station:SCCF:51:1,2008-09-06T12:00:00Z,26.5545,-82.1715,2.089,5.62,1111122 
SCCF RECON,ioos:station:SCCF:51:1,2008-09-06T13:00:00Z,26.5545,-82.1715,2.01,5.46,1111122 
SCCF RECON,ioos:station:SCCF:51:1,2008-09-06T14:00:00Z,26.5545,-82.1715,1.929,5.75,1111122 
SCCF RECON,ioos:station:SCCF:51:1,2008-09-06T15:00:00Z,26.5545,-82.1715,1.84,5.63,1111122 
SCCF RECON,ioos:station:SCCF:51:1,2008-09-06T16:00:00Z,26.5545,-82.1715,1.763,6.29,1111122 
SCCF RECON,ioos:station:SCCF:51:1,2008-09-06T17:00:00Z,26.5545,-82.1715,1.721,6.4,1111122 
SCCF RECON,ioos:station:SCCF:51:1,2008-09-06T18:00:00Z,26.5545,-82.1715,1.744,6.21,1111122 
SCCF RECON,ioos:station:SCCF:51:1,2008-09-06T19:00:00Z,26.5545,-82.1715,1.804,7.15,1111122 
SCCF RECON,ioos:station:SCCF:51:1,2008-09-06T20:00:00Z,26.5545,-82.1715,1.872,7.68,1111122 
SCCF RECON,ioos:station:SCCF:51:1,2008-09-06T21:00:00Z,26.5545,-82.1715,1.919,7.02,1111122 
SCCF RECON,ioos:station:SCCF:51:1,2008-09-06T22:00:00Z,26.5545,-82.1715,1.968,6.36,1111122 
SCCF RECON,ioos:station:SCCF:51:1,2008-09-06T23:00:00Z,26.5545,-82.1715,2.0,6.5,1111122 
SCCF RECON,ioos:station:SCCF:51:1,2008-09-07T00:00:00Z,26.5545,-82.1715,2.02,6.38,1111122 
SCCF RECON,ioos:station:SCCF:51:1,2008-09-07T01:00:00Z,26.5545,-82.1715,2.032,5.89,1111122 
SCCF RECON,ioos:station:SCCF:51:1,2008-09-07T02:00:00Z,26.5545,-82.1715,2.03,7.09,1111122 
SCCF RECON,ioos:station:SCCF:51:1,2008-09-07T03:00:00Z,26.5545,-82.1715,2.02,7.01,1111122 
SCCF RECON,ioos:station:SCCF:51:1,2008-09-07T04:00:00Z,26.5545,-82.1715,2.023,7.12,1111122 
SCCF RECON,ioos:station:SCCF:51:1,2008-09-07T05:00:00Z,26.5545,-82.1715,2.07,7.06,1111122 
SCCF RECON,ioos:station:SCCF:51:1,2008-09-07T06:00:00Z,26.5545,-82.1715,2.11,7.21,1111122 
SCCF RECON,ioos:station:SCCF:51:1,2008-09-07T07:00:00Z,26.5545,-82.1715,2.14,7.1,1111122 
SCCF RECON,ioos:station:SCCF:51:1,2008-09-07T08:00:00Z,26.5545,-82.1715,2.175,6.33,1111122 
SCCF RECON,ioos:station:SCCF:51:1,2008-09-07T09:00:00Z,26.5545,-82.1715,2.19,5.79,1111122 
SCCF RECON,ioos:station:SCCF:51:1,2008-09-07T10:00:00Z,26.5545,-82.1715,2.171,5.31,1111122 
SCCF RECON,ioos:station:SCCF:51:1,2008-09-07T11:00:00Z,26.5545,-82.1715,2.132,5.4,1111122 
SCCF RECON,ioos:station:SCCF:51:1,2008-09-07T12:00:00Z,26.5545,-82.1715,2.067,6.0,1111122 
SCCF RECON,ioos:station:SCCF:51:1,2008-09-07T13:00:00Z,26.5545,-82.1715,1.996,6.05,1111122 
SCCF RECON,ioos:station:SCCF:51:1,2008-09-07T14:00:00Z,26.5545,-82.1715,1.915,5.77,1111122 
SCCF RECON,ioos:station:SCCF:51:1,2008-09-07T15:00:00Z,26.5545,-82.1715,1.829,6.32,1111122 
SCCF RECON,ioos:station:SCCF:51:1,2008-09-07T16:00:00Z,26.5545,-82.1715,1.747,6.41,1111122 
SCCF RECON,ioos:station:SCCF:51:1,2008-09-07T17:00:00Z,26.5545,-82.1715,1.673,6.16,1111122 
SCCF RECON,ioos:station:SCCF:51:1,2008-09-07T18:00:00Z,26.5545,-82.1715,1.631,6.23,1111122 
SCCF RECON,ioos:station:SCCF:51:1,2008-09-07T19:00:00Z,26.5545,-82.1715,1.634,7.43,1111122 
SCCF RECON,ioos:station:SCCF:51:1,2008-09-07T20:00:00Z,26.5545,-82.1715,1.679,7.47,1111122 
SCCF RECON,ioos:station:SCCF:51:1,2008-09-07T21:00:00Z,26.5545,-82.1715,1.75,7.73,1111122 
SCCF RECON,ioos:station:SCCF:51:1,2008-09-07T22:00:00Z,26.5545,-82.1715,1.824,7.66,1111122 
SCCF RECON,ioos:station:SCCF:51:1,2008-09-07T23:00:00Z,26.5545,-82.1715,1.88,7.72,1111122 
SCCF RECON,ioos:station:SCCF:51:1,2008-09-08T00:00:00Z,26.5545,-82.1715,1.935,7.17,1111122 
SCCF RECON,ioos:station:SCCF:51:1,2008-09-08T01:00:00Z,26.5545,-82.1715,1.982,7.16,1111122 
SCCF RECON,ioos:station:SCCF:51:1,2008-09-08T02:00:00Z,26.5545,-82.1715,2.011,6.58,1111122 
SCCF RECON,ioos:station:SCCF:51:1,2008-09-08T03:00:00Z,26.5545,-82.1715,2.01,6.5,1111122 
SCCF RECON,ioos:station:SCCF:51:1,2008-09-08T04:00:00Z,26.5545,-82.1715,2.0,6.34,1111122 
SCCF RECON,ioos:station:SCCF:51:1,2008-09-08T05:00:00Z,26.5545,-82.1715,2.007,6.25,1111122 
SCCF RECON,ioos:station:SCCF:51:1,2008-09-08T06:00:00Z,26.5545,-82.1715,2.003,6.11,1111122 
SCCF RECON,ioos:station:SCCF:51:1,2008-09-08T07:00:00Z,26.5545,-82.1715,1.998,6.12,1111122 
SCCF RECON,ioos:station:SCCF:51:1,2008-09-08T08:00:00Z,26.5545,-82.1715,2.01,6.2,1111122 
SCCF RECON,ioos:station:SCCF:51:1,2008-09-08T09:00:00Z,26.5545,-82.1715,2.058,6.21,1111122 
SCCF RECON,ioos:station:SCCF:51:1,2008-09-08T10:00:00Z,26.5545,-82.1715,2.097,4.78,1111122 
SCCF RECON,ioos:station:SCCF:51:1,2008-09-08T11:00:00Z,26.5545,-82.1715,2.104,5.33,1111122 
SCCF RECON,ioos:station:SCCF:51:1,2008-09-08T12:00:00Z,26.5545,-82.1715,2.08,5.79,1111122 
SCCF RECON,ioos:station:SCCF:51:1,2008-09-08T13:00:00Z,26.5545,-82.1715,2.037,5.85,1111122 
SCCF RECON,ioos:station:SCCF:51:1,2008-09-08T14:00:00Z,26.5545,-82.1715,1.981,6.01,1111122 
SCCF RECON,ioos:station:SCCF:51:1,2008-09-08T15:00:00Z,26.5545,-82.1715,1.921,6.26,1111122 
SCCF RECON,ioos:station:SCCF:51:1,2008-09-08T16:00:00Z,26.5545,-82.1715,1.829,6.16,1111122 
SCCF RECON,ioos:station:SCCF:51:1,2008-09-08T17:00:00Z,26.5545,-82.1715,1.734,6.0,1111122 
SCCF RECON,ioos:station:SCCF:51:1,2008-09-08T18:00:00Z,26.5545,-82.1715,1.661,6.38,1111122 
SCCF RECON,ioos:station:SCCF:51:1,2008-09-08T19:00:00Z,26.5545,-82.1715,1.617,6.78,1111122 
SCCF RECON,ioos:station:SCCF:51:1,2008-09-08T20:00:00Z,26.5545,-82.1715,1.625,6.76,1111122 
SCCF RECON,ioos:station:SCCF:51:1,2008-09-08T21:00:00Z,26.5545,-82.1715,1.653,7.36,1111122 
SCCF RECON,ioos:station:SCCF:51:1,2008-09-08T22:00:00Z,26.5545,-82.1715,1.701,7.1,1111122 
SCCF RECON,ioos:station:SCCF:51:1,2008-09-08T23:00:00Z,26.5545,-82.1715,1.769,6.51,1111122 
SCCF RECON,ioos:station:SCCF:51:1,2008-09-09T00:00:00Z,26.5545,-82.1715,1.861,7.07,1111122 
SCCF RECON,ioos:station:SCCF:51:1,2008-09-09T01:00:00Z,26.5545,-82.1715,1.912,6.12,1111122 
SCCF RECON,ioos:station:SCCF:51:1,2008-09-09T02:00:00Z,26.5545,-82.1715,1.875,5.85,1111122 
SCCF RECON,ioos:station:SCCF:51:1,2008-09-09T03:00:00Z,26.5545,-82.1715,1.855,6.07,1111122 
SCCF RECON,ioos:station:SCCF:51:1,2008-09-09T04:00:00Z,26.5545,-82.1715,1.883,5.63,1111122 
SCCF RECON,ioos:station:SCCF:51:1,2008-09-09T05:00:00Z,26.5545,-82.1715,1.935,5.66,1111122 
SCCF RECON,ioos:station:SCCF:51:1,2008-09-09T06:00:00Z,26.5545,-82.1715,1.953,5.86,1111122 
SCCF RECON,ioos:station:SCCF:51:1,2008-09-09T07:00:00Z,26.5545,-82.1715,1.906,5.85,1111122 
SCCF RECON,ioos:station:SCCF:51:1,2008-09-09T08:00:00Z,26.5545,-82.1715,1.917,6.08,1111122 
SCCF RECON,ioos:station:SCCF:51:1,2008-09-09T09:00:00Z,26.5545,-82.1715,1.942,6.0,1111122 
SCCF RECON,ioos:station:SCCF:51:1,2008-09-09T10:00:00Z,26.5545,-82.1715,2.016,5.4,1111122 
SCCF RECON,ioos:station:SCCF:51:1,2008-09-09T11:00:00Z,26.5545,-82.1715,1.98,5.73,1111122 
SCCF RECON,ioos:station:SCCF:51:1,2008-09-09T12:00:00Z,26.5545,-82.1715,1.946,5.75,1111122 
SCCF RECON,ioos:station:SCCF:51:1,2008-09-09T13:00:00Z,26.5545,-82.1715,1.962,5.16,1111122 
SCCF RECON,ioos:station:SCCF:51:1,2008-09-09T14:00:00Z,26.5545,-82.1715,1.988,5.69,1111122 
SCCF RECON,ioos:station:SCCF:51:1,2008-09-09T15:00:00Z,26.5545,-82.1715,1.948,5.86,1111122 
SCCF RECON,ioos:station:SCCF:51:1,2008-09-09T16:00:00Z,26.5545,-82.1715,1.872,5.94,1111122 
SCCF RECON,ioos:station:SCCF:51:1,2008-09-09T17:00:00Z,26.5545,-82.1715,1.781,6.22,1111122 
SCCF RECON,ioos:station:SCCF:51:1,2008-09-09T18:00:00Z,26.5545,-82.1715,1.685,6.53,1111122 
SCCF RECON,ioos:station:SCCF:51:1,2008-09-09T19:00:00Z,26.5545,-82.1715,1.619,6.58,1111122 
SCCF RECON,ioos:station:SCCF:51:1,2008-09-09T20:00:00Z,26.5545,-82.1715,1.539,6.7,1111122 
SCCF RECON,ioos:station:SCCF:51:1,2008-09-09T21:00:00Z,26.5545,-82.1715,1.601,6.27,1111122 
SCCF RECON,ioos:station:SCCF:51:1,2008-09-09T22:00:00Z,26.5545,-82.1715,1.671,6.23,1111122 
SCCF RECON,ioos:station:SCCF:51:1,2008-09-09T23:00:00Z,26.5545,-82.1715,1.676,6.12,1111122 
SCCF RECON,ioos:station:SCCF:51:1,2008-09-10T00:00:00Z,26.5545,-82.1715,1.749,6.28,1111122 
SCCF RECON,ioos:station:SCCF:51:1,2008-09-10T01:00:00Z,26.5545,-82.1715,1.827,6.17,1111122 
SCCF RECON,ioos:station:SCCF:51:1,2008-09-10T02:00:00Z,26.5545,-82.1715,1.933,5.82,1111122 
SCCF RECON,ioos:station:SCCF:51:1,2008-09-10T03:00:00Z,26.5545,-82.1715,2.041,5.31,1111122 
SCCF RECON,ioos:station:SCCF:51:1,2008-09-10T04:00:00Z,26.5545,-82.1715,2.122,5.5,1111122 
SCCF RECON,ioos:station:SCCF:51:1,2008-09-10T05:00:00Z,26.5545,-82.1715,2.132,5.24,1111122 
SCCF RECON,ioos:station:SCCF:51:1,2008-09-10T06:00:00Z,26.5545,-82.1715,2.13,5.37,1111122 
SCCF RECON,ioos:station:SCCF:51:1,2008-09-10T07:00:00Z,26.5545,-82.1715,2.1,5.71,1111122 
SCCF RECON,ioos:station:SCCF:51:1,2008-09-10T08:00:00Z,26.5545,-82.1715,2.142,5.37,1111122 
SCCF RECON,ioos:station:SCCF:51:1,2008-09-10T09:00:00Z,26.5545,-82.1715,2.226,5.6,1111122 
SCCF RECON,ioos:station:SCCF:51:1,2008-09-10T10:00:00Z,26.5545,-82.1715,2.301,5.34,1111122 
SCCF RECON,ioos:station:SCCF:51:1,2008-09-10T11:00:00Z,26.5545,-82.1715,2.396,5.26,1111122 
SCCF RECON,ioos:station:SCCF:51:1,2008-09-10T12:00:00Z,26.5545,-82.1715,2.457,5.16,1111122 
SCCF RECON,ioos:station:SCCF:51:1,2008-09-10T13:00:00Z,26.5545,-82.1715,2.508,5.66,1111122 
SCCF RECON,ioos:station:SCCF:51:1,2008-09-10T14:00:00Z,26.5545,-82.1715,2.572,5.22,1111122 
SCCF RECON,ioos:station:SCCF:51:1,2008-09-10T15:00:00Z,26.5545,-82.1715,2.582,5.36,1111122 
SCCF RECON,ioos:station:SCCF:51:1,2008-09-10T16:00:00Z,26.5545,-82.1715,2.514,5.05,1111122 
SCCF RECON,ioos:station:SCCF:51:1,2008-09-10T17:00:00Z,26.5545,-82.1715,2.407,5.41,1111122 
SCCF RECON,ioos:station:SCCF:51:1,2008-09-10T18:00:00Z,26.5545,-82.1715,2.304,5.63,1111122 
SCCF RECON,ioos:station:SCCF:51:1,2008-09-10T19:00:00Z,26.5545,-82.1715,2.216,5.93,1111122 
SCCF RECON,ioos:station:SCCF:51:1,2008-09-10T20:00:00Z,26.5545,-82.1715,2.149,5.99,1111122 
SCCF RECON,ioos:station:SCCF:51:1,2008-09-10T21:00:00Z,26.5545,-82.1715,2.11,5.82,1111122 
SCCF RECON,ioos:station:SCCF:51:1,2008-09-10T22:00:00Z,26.5545,-82.1715,2.117,5.8,1111122 
SCCF RECON,ioos:station:SCCF:51:1,2008-09-10T23:00:00Z,26.5545,-82.1715,2.146,6.13,1111122 
SCCF RECON,ioos:station:SCCF:51:1,2008-09-11T00:00:00Z,26.5545,-82.1715,2.194,6.11,1111122 
SCCF RECON,ioos:station:SCCF:51:1,2008-09-11T01:00:00Z,26.5545,-82.1715,2.234,5.92,1111122 
SCCF RECON,ioos:station:SCCF:51:1,2008-09-11T02:00:00Z,26.5545,-82.1715,2.272,5.65,1111122 
SCCF RECON,ioos:station:SCCF:51:1,2008-09-11T03:00:00Z,26.5545,-82.1715,2.315,5.6,1111122 
SCCF RECON,ioos:station:SCCF:51:1,2008-09-11T04:00:00Z,26.5545,-82.1715,2.372,5.62,1111122 
SCCF RECON,ioos:station:SCCF:51:1,2008-09-11T05:00:00Z,26.5545,-82.1715,2.383,5.14,1111122 
SCCF RECON,ioos:station:SCCF:51:1,2008-09-11T06:00:00Z,26.5545,-82.1715,2.345,5.31,1111122 
SCCF RECON,ioos:station:SCCF:51:1,2008-09-11T07:00:00Z,26.5545,-82.1715,2.28,5.35,1111122 
SCCF RECON,ioos:station:SCCF:51:1,2008-09-11T08:00:00Z,26.5545,-82.1715,2.244,5.43,1111122 
SCCF RECON,ioos:station:SCCF:51:1,2008-09-11T09:00:00Z,26.5545,-82.1715,2.259,3.93,1111122 
SCCF RECON,ioos:station:SCCF:51:1,2008-09-11T10:00:00Z,26.5545,-82.1715,2.297,5.27,1111122 
SCCF RECON,ioos:station:SCCF:51:1,2008-09-11T11:00:00Z,26.5545,-82.1715,2.361,5.38,1111122 
SCCF RECON,ioos:station:SCCF:51:1,2008-09-11T12:00:00Z,26.5545,-82.1715,2.415,5.39,1111122 
SCCF RECON,ioos:station:SCCF:51:1,2008-09-11T13:00:00Z,26.5545,-82.1715,2.428,5.01,1111122 
SCCF RECON,ioos:station:SCCF:51:1,2008-09-11T14:00:00Z,26.5545,-82.1715,2.438,5.18,1111122 
SCCF RECON,ioos:station:SCCF:51:1,2008-09-11T15:00:00Z,26.5545,-82.1715,2.419,5.3,1111122 
SCCF RECON,ioos:station:SCCF:51:1,2008-09-11T16:00:00Z,26.5545,-82.1715,2.36,5.75,1111122 
SCCF RECON,ioos:station:SCCF:51:1,2008-09-11T17:00:00Z,26.5545,-82.1715,2.275,5.7,1111122 
SCCF RECON,ioos:station:SCCF:51:1,2008-09-11T18:00:00Z,26.5545,-82.1715,2.18,6.29,1111122 
SCCF RECON,ioos:station:SCCF:51:1,2008-09-11T19:00:00Z,26.5545,-82.1715,2.07,6.56,1111122 